Regional Weather Roundup
Issued by NWS

Home | Current Version | Previous Version | Graphics & Text | Print | Product List | Glossary On
Versions: 1 2 3 4 5 6 7 8 9 10 11 12 13 14 15 16 17 18 19 20 21 22 23 24 25 26 27 28 29 30 31 32 33 34 35 36 37 38 39 40 41 42 43 44 45 46 47 48 49 50
000
ASUS43 KBIS 300310
RWRND

NORTH DAKOTA REGIONAL WEATHER ROUNDUP
NATIONAL WEATHER SERVICE BISMARCK ND
1000 PM CDT WED JUL 29 2015

NOTE: "FAIR" INDICATES FEW OR NO CLOUDS BELOW 12,000 FEET WITH NO
SIGNIFICANT WEATHER AND/OR OBSTRUCTIONS TO VISIBILITY.


NDZ001>003-009>011-017-300400-
NORTHWEST NORTH DAKOTA

CITY           SKY/WX    TMP DP  RH WIND       PRES   REMARKS
WILLISTON      PTCLDY    66  51  58 W6        30.07R
MINOT          CLEAR     69  53  56 W10       30.01R
MINOT AFB      CLEAR     62  59  88 W10       30.00R
$$

NDZ018>021-031>035-040>046-300400-
SOUTHWEST NORTH DAKOTA

CITY           SKY/WX    TMP DP  RH WIND       PRES   REMARKS
BISMARCK       CLEAR     70  51  51 W6        30.05R
DICKINSON      CLEAR     68  46  45 NW8       30.11R
GARRISON         N/A     62  55  77 NW9       30.05R
HETTINGER ARPT PTCLDY    57  49  74 CALM      30.15R
$$

NDZ004>008-012>016-024-026-027-054-300400-
NORTHEAST NORTH DAKOTA

CITY           SKY/WX    TMP DP  RH WIND       PRES   REMARKS
GRAND FORKS    PTCLDY    66  58  75 W7        29.90R
GRND FRKS AFB  CLEAR     66  59  77 W7        29.91R
DEVILS LAKE    PTCLDY    66  54  63 W10       29.95R
$$

NDZ022-023-025-028>030-036>039-047>053-300400-
SOUTHEAST NORTH DAKOTA

CITY           SKY/WX    TMP DP  RH WIND       PRES   REMARKS
FARGO          CLEAR     70  58  65 SW12      29.94R
JAMESTOWN      CLEAR     69  52  54 W10       30.00R
$$




USA.gov is the U.S. government's official web portal to all federal, state and local government web resources and services.